Weather History for Arbor Vitae, WI

Change the Weather History Date:

Sunday, August 25, 2013

  Actual Average Record
Temperature  
Mean Temperature 82 °F -  
Max Temperature 92 °F 74 °F 92 °F (1948)
Min Temperature 72 °F 51 °F 34 °F (1917)
Cooling Degree Days 17    
Growing Degree Days 32 (Base 50)    
Moisture  
Dew Point 70 °F    
Average Humidity 69    
Maximum Humidity 85    
Minimum Humidity 47    
Precipitation  
Precipitation 0.00 in - - ()
Sea Level Pressure  
Sea Level Pressure 30.04 in    
Wind  
Wind Speed 12 mph (SW)    
Max Wind Speed 17 mph    
Max Gust Speed 25 mph    
Visibility 10 miles    
Events Thunderstorm    
Averages and records for this station are not official NWS values.
T = Trace of Precipitation, MM = Missing Value Source: NWS Daily Summary

Daily Weather History Graph

Daily Weather History Graph

Search for Another Location

Airport:

Trip Planner

Search our weather history database for the weather conditions in past years. The results will help you decide how hot, cold, wet, or windy it might be!

Date:

Astronomy

Aug. 25, 2013 Rise Set
Actual Time 6:11 AM CDT 7:49 PM CDT
Civil Twilight 5:39 AM CDT 8:20 PM CDT
Nautical Twilight 5:01 AM CDT 8:59 PM CDT
Astronomical Twilight 4:20 AM CDT 9:40 PM CDT
Moon 10:00 PM CDT (8/25) 11:32 AM CDT (8/25)
Length of Visible Light 14h 41m
Length of Day
13h 38m
Waning Gibbous, 75% of the Moon is Illuminated
Aug 25
Waning Gibbous
Aug 28
Last Quarter
Sep 5
New
Sep 12
First Quarter
Sep 19
Full

Hourly Weather History & Observations

Time (CDT) Temp. Heat Index Dew Point Humidity Pressure Visibility Wind Dir Wind Speed Gust Speed Precip Events Conditions
12:15 AM 73.4 °F - 66.6 °F 79% 30.07 in 10.0 mi South 15.0 mph 21.9 mph N/A   Scattered Clouds
12:35 AM 72.5 °F - 66.2 °F 81% 30.06 in 10.0 mi SSW 15.0 mph 24.2 mph N/A Thunderstorm Clear
12:55 AM 72.0 °F - 65.8 °F 81% 30.06 in 10.0 mi SSW 12.7 mph 17.3 mph N/A   Scattered Clouds
1:15 AM 72.0 °F - 65.8 °F 81% 30.07 in 10.0 mi SSW 16.1 mph 20.7 mph N/A   Scattered Clouds
1:35 AM 72.0 °F - 66.2 °F 82% 30.07 in 10.0 mi SSW 11.5 mph 18.4 mph N/A   Clear
1:55 AM 72.0 °F - 66.4 °F 83% 30.07 in 10.0 mi SSW 10.4 mph 18.4 mph N/A   Clear
2:15 AM 72.0 °F - 66.4 °F 83% 30.07 in 10.0 mi SSW 10.4 mph - N/A Thunderstorm Scattered Clouds
2:35 AM 72.0 °F - 66.7 °F 84% 30.07 in 10.0 mi SSW 8.1 mph - N/A   Scattered Clouds
2:55 AM 72.0 °F - 67.1 °F 85% 30.07 in 10.0 mi SSW 8.1 mph - N/A   Clear
3:15 AM 72.0 °F - 67.3 °F 85% 30.07 in 10.0 mi SSW 8.1 mph - N/A   Clear
3:35 AM 72.0 °F - 67.3 °F 85% 30.08 in 10.0 mi SSW 9.2 mph - N/A   Scattered Clouds
3:55 AM 72.0 °F - 67.1 °F 85% 30.07 in 10.0 mi SSW 11.5 mph - N/A   Scattered Clouds
4:15 AM 72.0 °F - 67.1 °F 85% 30.07 in 10.0 mi SSW 10.4 mph - N/A   Scattered Clouds
4:35 AM 73.6 °F - 68.0 °F 83% 30.07 in 10.0 mi SSW 9.2 mph 16.1 mph N/A   Clear
4:55 AM 74.5 °F - 68.9 °F 83% 30.07 in 10.0 mi SSW 13.8 mph - N/A   Scattered Clouds
5:15 AM 73.9 °F - 68.4 °F 83% 30.06 in 10.0 mi SSW 9.2 mph 17.3 mph N/A   Scattered Clouds
5:35 AM 72.1 °F - 67.3 °F 85% 30.06 in 10.0 mi SSW 11.5 mph - N/A   Clear
5:55 AM 72.0 °F - 67.1 °F 85% 30.07 in 10.0 mi SSW 10.4 mph - N/A   Clear
6:15 AM 72.5 °F - 67.5 °F 84% 30.06 in 10.0 mi SW 15.0 mph 20.7 mph N/A   Scattered Clouds
6:35 AM 73.0 °F - 68.0 °F 84% 30.06 in 10.0 mi SW 10.4 mph 18.4 mph N/A   Clear
6:55 AM 74.5 °F - 69.1 °F 83% 30.08 in 10.0 mi SW 13.8 mph 17.3 mph N/A   Clear
7:15 AM 77.0 °F - 70.7 °F 81% 30.07 in 10.0 mi SW 15.0 mph 20.7 mph N/A   Clear
7:35 AM 77.0 °F - 70.7 °F 81% 30.07 in 10.0 mi SSW 10.4 mph 16.1 mph N/A   Clear
7:55 AM 77.0 °F - 69.8 °F 78% 30.07 in 10.0 mi SW 12.7 mph 19.6 mph N/A   Clear
8:15 AM 77.0 °F - 69.1 °F 76% 30.07 in 10.0 mi SW 11.5 mph 19.6 mph N/A   Clear
8:35 AM 77.0 °F - 68.5 °F 75% 30.06 in 10.0 mi SW 15.0 mph 21.9 mph N/A   Clear
8:55 AM 79.2 °F - 70.0 °F 73% 30.06 in 10.0 mi WSW 10.4 mph 20.7 mph N/A   Clear
9:15 AM 79.7 °F - 69.8 °F 72% 30.06 in 10.0 mi WSW 11.5 mph 18.4 mph N/A   Clear
9:35 AM 82.4 °F 86.7 °F 70.7 °F 68% 30.06 in 10.0 mi WSW 10.4 mph 20.7 mph N/A   Clear
9:55 AM 82.4 °F 86.3 °F 70.0 °F 66% 30.06 in 10.0 mi WSW 16.1 mph 23.0 mph N/A   Clear
10:15 AM 82.4 °F 86.1 °F 69.4 °F 65% 30.05 in 10.0 mi SW 15.0 mph 25.3 mph N/A   Clear
10:35 AM 83.1 °F 86.8 °F 69.4 °F 63% 30.06 in 10.0 mi WSW 16.1 mph 24.2 mph N/A   Clear
10:55 AM 84.2 °F 88.1 °F 69.6 °F 61% 30.06 in 10.0 mi WSW 15.0 mph 23.0 mph N/A   Clear
11:15 AM 82.9 °F 86.7 °F 69.4 °F 64% 30.06 in 10.0 mi WSW 12.7 mph 20.7 mph N/A   Clear
11:35 AM 85.6 °F 90.1 °F 69.8 °F 59% 30.05 in 10.0 mi WSW 11.5 mph - N/A   Clear
11:55 AM 85.6 °F 90.1 °F 69.6 °F 59% 30.04 in 10.0 mi WSW 10.4 mph 18.4 mph N/A   Clear
12:15 PM 85.8 °F 90.4 °F 69.8 °F 59% 30.03 in 10.0 mi WSW 11.5 mph - N/A   Clear
12:35 PM 87.3 °F 92.0 °F 69.8 °F 56% 30.03 in 10.0 mi WSW 13.8 mph 20.7 mph N/A   Clear
12:55 PM 90.3 °F 97.7 °F 72.1 °F 55% 30.02 in 10.0 mi SSW 11.5 mph 18.4 mph N/A   Clear
1:15 PM 92.3 °F 100.9 °F 72.7 °F 53% 30.02 in 10.0 mi SW 15.0 mph 24.2 mph N/A   Clear
1:35 PM 92.3 °F 99.7 °F 71.6 °F 51% 30.01 in 10.0 mi SW 17.3 mph 20.7 mph N/A   Clear
1:55 PM 92.3 °F 99.2 °F 71.4 °F 50% 30.01 in 10.0 mi SW 12.7 mph 24.2 mph N/A   Clear
2:15 PM 92.3 °F 99.2 °F 71.2 °F 50% 30.01 in 10.0 mi WSW 15.0 mph 25.3 mph N/A   Clear
2:35 PM 92.3 °F 98.1 °F 70.2 °F 48% 30.00 in 10.0 mi SW 15.0 mph 21.9 mph N/A   Clear
2:55 PM 92.3 °F 98.6 °F 70.3 °F 49% 30.00 in 10.0 mi WSW 15.0 mph 23.0 mph N/A   Clear
3:15 PM 92.3 °F 98.1 °F 70.0 °F 48% 30.00 in 10.0 mi SW 13.8 mph 24.2 mph N/A   Clear
3:35 PM 92.3 °F 98.6 °F 70.5 °F 49% 30.00 in 10.0 mi SW 10.4 mph 20.7 mph N/A   Clear
3:55 PM 92.3 °F 97.6 °F 69.6 °F 47% 29.99 in 10.0 mi SW 12.7 mph 23.0 mph N/A   Clear
4:15 PM 92.3 °F 98.1 °F 69.8 °F 48% 29.99 in 10.0 mi SSW 16.1 mph 20.7 mph N/A   Clear
4:35 PM 92.3 °F 98.6 °F 70.7 °F 49% 30.00 in 10.0 mi SW 17.3 mph 23.0 mph N/A   Clear
4:55 PM 92.3 °F 99.7 °F 71.8 °F 51% 30.00 in 10.0 mi SW 13.8 mph 24.2 mph N/A   Clear
5:15 PM 92.3 °F 99.7 °F 72.0 °F 51% 30.00 in 10.0 mi SW 12.7 mph 20.7 mph N/A   Clear
5:35 PM 92.3 °F 100.3 °F 72.5 °F 52% 30.00 in 10.0 mi SW 15.0 mph - N/A   Clear
5:55 PM 92.3 °F 100.9 °F 72.9 °F 53% 30.00 in 10.0 mi SW 11.5 mph 20.7 mph N/A   Clear
6:15 PM 89.8 °F 96.5 °F 71.6 °F 55% 30.01 in 10.0 mi SW 12.7 mph 21.9 mph N/A   Clear
6:35 PM 86.9 °F 92.1 °F 70.5 °F 58% 30.01 in 10.0 mi SW 8.1 mph 19.6 mph N/A   Clear
6:55 PM 86.0 °F 91.1 °F 70.7 °F 60% 30.01 in 10.0 mi SW 9.2 mph - N/A   Clear
7:15 PM 85.1 °F 90.1 °F 70.9 °F 62% 30.01 in 10.0 mi SW 5.8 mph - N/A   Clear
7:35 PM 84.7 °F 90.4 °F 71.6 °F 65% 30.01 in 10.0 mi SW 8.1 mph - N/A   Clear
7:55 PM 83.5 °F 88.2 °F 70.9 °F 66% 30.01 in 10.0 mi SW 5.8 mph - N/A   Clear
8:15 PM 82.9 °F 87.7 °F 71.6 °F 68% 30.02 in 10.0 mi SSW 5.8 mph - N/A   Clear
8:35 PM 82.4 °F 87.2 °F 71.8 °F 70% 30.02 in 10.0 mi SSW 5.8 mph - N/A   Clear
8:55 PM 82.4 °F 87.7 °F 72.7 °F 72% 30.03 in 10.0 mi SSW 5.8 mph - N/A   Clear
9:15 PM 82.4 °F 87.7 °F 72.7 °F 72% 30.04 in 10.0 mi SW 9.2 mph - N/A   Clear
9:35 PM 82.4 °F 87.9 °F 72.9 °F 73% 30.04 in 10.0 mi SW 9.2 mph - N/A   Clear
9:55 PM 81.5 °F 86.3 °F 72.7 °F 74% 30.04 in 10.0 mi SW 8.1 mph - N/A   Clear
10:15 PM 79.7 °F - 71.1 °F 75% 30.03 in 10.0 mi SSW 9.2 mph - N/A   Clear
10:35 PM 79.7 °F - 71.2 °F 75% 30.02 in 10.0 mi SW 9.2 mph - N/A   Clear
10:55 PM 79.7 °F - 71.6 °F 76% 30.03 in 10.0 mi SW 8.1 mph - N/A   Clear
11:15 PM 79.7 °F - 71.8 °F 77% 30.03 in 10.0 mi SW 8.1 mph - N/A   Clear
11:35 PM 79.7 °F - 72.5 °F 79% 30.01 in 10.0 mi SW 9.2 mph - N/A   Clear
11:55 PM 79.7 °F - 72.0 °F 77% 30.04 in 10.0 mi SW 8.1 mph - N/A   Scattered Clouds